SPACEBEE-13 (46310 NORAD) Tracking and Keplerian Element Data

This shows tracking and keplerian element data for the satellite.

Feedback or suggestion? Click here.




ElementValue
Catalog46310
NameSPACEBEE-13
Epoch Orbit1373
Epoch Day338.47822917
Epoch Year2020
RAAN49.9762
Inclination97.5113
Eccentricity0.0001098
Argument of Perigee73.5166
Mean Anonmoly286.6185
Mean Motion15.11098232
Decay Rate5.126E-05
L11 46310U 20061AQ 20338.47822917 .00005126 00000-0 30988-3 0 9994
L22 46310 97.5113 49.9762 0001098 73.5166 286.6185 15.11098232 13737

Live tracking and technical data element details for SPACEBEE-13 (NORAD 46310). SPACEBEE-13 can be tracked NOW for your location showing map with azimuth and elevation plus other details from your city location.

Track the satellite on the map from your city or location and see movement details for azimuth, elevation, latitude, longitude, range, height, and movement on the map or in text.







IsCatalogInMostPopularTable: catalog: 46310, numindb: 18
Update: records affected: 1



GetName: 46310 SPACEBEE-13

Hit Count: updated at: Sun, 06 Dec 2020 00:23:36 GMT